Waarnemingen

Advertentie
Mijn weer
Horn, Zweden (2557): temperatuur & dauwpunt: 19.02.2018 06:00:00 - 25.02.2018 06:00:00 (CET)Horn, Zweden (2557): windsnelheid & windstoten: 19.02.2018 06:00:00 - 25.02.2018 06:00:00 (CET)Horn, Zweden (2557): windrichting: 19.02.2018 06:00:00 - 25.02.2018 06:00:00 (CET)Horn, Zweden (2557): luchtdruk: 19.02.2018 06:00:00 - 25.02.2018 06:00:00 (CET)Horn, Zweden (2557): zicht: 19.02.2018 06:00:00 - 25.02.2018 06:00:00 (CET)Horn, Zweden (2557): neerslag: 19.02.2018 06:00:00 - 25.02.2018 06:00:00 (CET)
Datum & Tijd tt [°C] td [°C] ff [km/u] ff [kn] fx [km/u] fx [kn] dd ppp [hPa] vv [km] rr [mm]
25.02.2018 06:00:00 -11,9 -13,5 7 4 14 8 N 1038,8 45 0,0
25.02.2018 05:00:00 -10,5 -12,4 7 4 14 8 NNW 1038,7 50 0,0
25.02.2018 04:00:00 -9,5 -11,3 9 5 14 8 NNW 1038,4 50 0,0
25.02.2018 03:00:00 -13,4 -15,0 0 0 4 2 N 1038,4 39 0,0
25.02.2018 02:00:00 -13,6 -15,2 0 0 3 1 N 1038,6 32 0,0
25.02.2018 01:00:00 -12,6 -14,2 0 0 0 0 N 1038,7 46 0,0
25.02.2018 00:00:00 -13,0 -14,6 0 0 0 0 N 1038,7 50 0,0
24.02.2018 23:00:00 -13,3 -14,9 0 0 0 0 N 1038,7 50 0,0
24.02.2018 22:00:00 -14,5 -16,2 0 0 0 0 N 1038,5 45 0,0
24.02.2018 21:00:00 -13,0 -14,6 0 0 5 3 N 1038,6 43 0,0
24.02.2018 20:00:00 -13,8 -15,4 0 0 5 3 N 1038,5 50 0,0
24.02.2018 19:00:00 -13,3 -15,4 0 0 6 3 N 1038,5 50 0,0
24.02.2018 18:00:00 -12,4 -15,6 0 0 14 7 N 1038,3 50 0,0
24.02.2018 17:00:00 -7,6 -13,6 4 2 19 10 NNW 1038,2 50 0,0
24.02.2018 16:00:00 -4,9 -12,6 9 5 21 11 NNW 1038,2 49 0,0
24.02.2018 15:00:00 -4,3 -12,4 8 5 21 11 N 1038,2 50 0,0
24.02.2018 14:00:00 -4,1 -11,1 9 5 18 10 NNO 1038,2 50 0,0
24.02.2018 13:00:00 -4,7 -10,1 8 4 18 10 N 1038,4 42 0,0
24.02.2018 12:00:00 -5,8 -10,2 12 7 18 10 NNW 1038,7 45 0,0
24.02.2018 11:00:00 -6,8 -10,5 10 5 18 10 NNW 1038,7 37 0,0
24.02.2018 10:00:00 -8,4 -10,2 5 3 11 6 NNW 1038,5 32 0,0
24.02.2018 09:00:00 -9,8 -11,3 4 2 10 5 N 1038,6 32 0,0
24.02.2018 08:00:00 -16,5 -18,3 3 1 6 3 NNW 1038,3 22 0,0
24.02.2018 07:00:00 -19,4 -21,7 0 0 3 2 N 1037,9 19 0,0
24.02.2018 06:00:00 -17,8 -19,7 0 0 4 2 N 1037,5 49 0,0
24.02.2018 05:00:00 -17,9 -20,2 0 0 5 3 N 1036,8 35 0,0
24.02.2018 04:00:00 -16,5 -18,3 0 0 12 7 N 1036,2 16 0,0
24.02.2018 03:00:00 -15,5 -17,2 4 2 15 8 NNO 1035,6 26 0,0
24.02.2018 02:00:00 -9,0 -11,2 8 5 16 8 N 1035,1 50 0,0
24.02.2018 01:00:00 -8,3 -10,5 9 5 16 8 N 1034,6 50 0,0
24.02.2018 00:00:00 -7,7 -9,8 7 4 13 7 N 1033,9 50 0,0
23.02.2018 23:00:00 -6,3 -8,6 8 4 16 8 N 1033,4 50 0,0
23.02.2018 22:00:00 -5,3 -8,0 6 4 16 8 N 1032,6 50 0,0
23.02.2018 21:00:00 -4,9 -8,1 7 4 18 10 N 1032,1 50 0,0
23.02.2018 20:00:00 -4,3 -7,9 7 4 22 12 N 1031,4 50 0,0
23.02.2018 19:00:00 -3,6 -7,2 10 6 22 12 N 1030,6 50 0,0
23.02.2018 18:00:00 -3,3 -6,8 10 5 25 13 N 1030,1 50 0,0
23.02.2018 17:00:00 -3,0 -6,3 9 5 25 13 N 1029,2 50 0,0
23.02.2018 16:00:00 -2,3 -6,0 12 6 23 13 N 1028,6 37 0,0
23.02.2018 15:00:00 -2,2 -5,2 14 8 23 13 N 1028,3 43 0,0
23.02.2018 14:00:00 -2,1 -4,4 11 6 23 12 N 1028,0 35 0,0
23.02.2018 13:00:00 -2,0 -4,0 10 6 23 12 NNW 1027,7 28 0,0
23.02.2018 12:00:00 -2,2 -4,4 10 5 18 10 NW 1027,3 34 0,0
23.02.2018 11:00:00 -2,9 -4,6 6 4 17 9 WNW 1027,1 7 0,0
23.02.2018 10:00:00 -3,9 -5,2 8 5 17 9 WNW 1027,0 10 0,0
23.02.2018 09:00:00 -4,2 -5,6 10 6 17 9 WNW 1026,9 20 0,0
23.02.2018 08:00:00 -4,8 -6,0 10 5 17 9 WNW 1026,9 13 0,0
23.02.2018 07:00:00 -5,2 -6,9 8 5 17 9 W 1026,8 22 0,0
23.02.2018 06:00:00 -5,4 -7,1 8 4 20 11 WNW 1026,7 17 0,0
23.02.2018 05:00:00 -5,3 -6,8 10 5 20 11 WNW 1026,7 20 0,0
23.02.2018 04:00:00 -6,7 -8,2 3 2 8 4 ZW 1026,8 20 0,0
23.02.2018 03:00:00 -5,7 -7,4 0 0 8 4 N 1027,2 21 0,0
23.02.2018 02:00:00 -5,5 -7,2 2 1 8 4 ZZO 1027,5 25 0,0
23.02.2018 01:00:00 -6,2 -7,6 2 1 7 4 ZZW 1027,8 27 0,0
23.02.2018 00:00:00 -6,4 -7,6 4 2 6 3 ZO 1028,1 23 0,0
22.02.2018 23:00:00 -6,8 -7,9 0 0 6 3 N 1028,6 20 0,0
22.02.2018 22:00:00 -7,0 -8,1 0 0 3 2 N 1028,9 18 0,0
22.02.2018 21:00:00 -7,5 -8,7 0 0 4 2 N 1029,2 17 0,0
22.02.2018 20:00:00 -9,1 -10,4 0 0 4 2 N 1029,4 20 0,0
22.02.2018 19:00:00 -8,6 -9,8 0 0 9 5 N 1029,4 16 0,0
22.02.2018 18:00:00 -8,9 -10,1 0 0 9 5 N 1029,1 6 0,0
22.02.2018 17:00:00 -6,7 -9,4 6 4 10 5 Z 1029,1 34 0,0
22.02.2018 16:00:00 -3,6 -6,5 8 4 10 5 Z 1029,3 35 0,0
22.02.2018 15:00:00 -3,5 -8,0 5 3 8 4 ZZW 1029,4 37 0,0
22.02.2018 14:00:00 -3,2 -8,6 0 0 4 2 N 1029,9 32 0,0
22.02.2018 13:00:00 -4,2 -8,1 0 0 2 1 N 1030,4 37 0,0
22.02.2018 12:00:00 -5,9 -7,3 0 0 2 1 N 1030,6 13 0,0
22.02.2018 11:00:00 -7,5 -8,7 0 0 0 0 N 1030,7 8 0,0
22.02.2018 10:00:00 -9,1 -10,4 0 0 1 0 N 1030,9 10 0,0
22.02.2018 09:00:00 -10,3 -11,8 0 0 1 0 N 1031,0 10 0,3
22.02.2018 08:00:00 -11,5 -13,1 0 0 1 0 N 1030,7 12 0,0
22.02.2018 07:00:00 -12,2 -13,8 0 0 1 1 N 1030,4 13 0,0
22.02.2018 06:00:00 -12,7 -14,4 0 0 2 1 N 1030,3 14 0,0
22.02.2018 05:00:00 -14,5 -16,3 0 0 2 1 N 1030,5 15 0,0
22.02.2018 04:00:00 -15,6 -17,5 0 0 1 1 N 1030,4 10 0,0
22.02.2018 03:00:00 -20,8 -23,3 0 0 0 0 N 1030,6 8 0,0
22.02.2018 02:00:00 -19,9 -22,3 0 0 0 0 N 1030,7 5 0,0
22.02.2018 01:00:00 -18,1 -20,1 0 0 0 0 N 1030,4 0,5 0,0
22.02.2018 00:00:00 -17,6 -19,6 0 0 0 0 N 1030,2 21 0,0
21.02.2018 23:00:00 -20,1 -22,5 0 0 0 0 N 1029,9 0,8 0,0
21.02.2018 22:00:00 -18,3 -20,5 0 0 3 2 N 1029,8 0,4 0,0
21.02.2018 21:00:00 -17,8 -19,8 0 0 3 2 N 1029,4 0,2 0,0
21.02.2018 20:00:00 -16,3 -18,2 0 0 6 3 N 1028,9 0,1 0,0
21.02.2018 19:00:00 -13,6 -15,3 0 0 9 5 N 1028,4 0,7 0,0
21.02.2018 18:00:00 -7,0 -9,4 0 0 16 9 N 1027,9 22 0,0
21.02.2018 17:00:00 -4,6 -7,8 6 3 16 9 N 1027,5 46 0,0
21.02.2018 16:00:00 -4,1 -7,4 8 5 14 8 NNW 1027,1 36 0,0
21.02.2018 15:00:00 -3,8 -6,9 8 5 13 7 N 1027,0 36 0,0
21.02.2018 14:00:00 -3,3 -7,3 0 0 5 3 N 1026,8 33 0,0
21.02.2018 13:00:00 -3,1 -6,7 0 0 7 4 N 1027,0 20 0,0
21.02.2018 12:00:00 -3,4 -6,4 0 0 10 6 N 1027,1 10 0,1
21.02.2018 11:00:00 -4,6 -6,9 4 2 10 6 N 1027,2 6 0,0
21.02.2018 10:00:00 -4,9 -6,4 0 0 8 4 N 1027,1 2,4 0,3
21.02.2018 09:00:00 -5,6 -6,7 2 1 8 4 NW 1027,1 1,2 0,4
21.02.2018 08:00:00 -6,6 -7,7 0 0 3 2 N 1026,5 7 0,0
21.02.2018 07:00:00 -6,3 -7,2 0 0 3 2 N 1026,5 6 0,0
21.02.2018 06:00:00 -7,0 -7,9 0 0 3 2 N 1026,8 6 0,0
21.02.2018 05:00:00 -7,2 -8,1 0 0 3 2 N 1027,1 7 0,0
21.02.2018 04:00:00 -6,5 -7,4 0 0 0 0 N 1027,5 6 0,0
21.02.2018 03:00:00 -6,8 -7,7 0 0 3 2 N 1027,8 6 0,0
21.02.2018 02:00:00 -6,8 -7,9 0 0 6 4 N 1027,8 7 0,0
21.02.2018 01:00:00 -5,2 -6,6 4 2 6 4 ONO 1027,8 11 0,0
21.02.2018 00:00:00 -4,9 -6,1 0 0 0 0 N 1028,1 9 0,0
20.02.2018 23:00:00 -5,1 -6,2 0 0 3 2 N 1028,2 9 0,0
20.02.2018 22:00:00 -5,2 -6,3 0 0 5 3 N 1028,0 9 0,0
20.02.2018 21:00:00 -5,6 -7,0 0 0 5 3 N 1028,0 8 0,0
20.02.2018 20:00:00 -4,3 -5,8 0 0 10 6 N 1028,2 10 0,0
20.02.2018 19:00:00 -4,2 -5,9 2 1 11 6 N 1028,1 8 0,0
20.02.2018 18:00:00 -4,0 -5,8 6 3 11 6 N 1028,1 9 0,0
20.02.2018 17:00:00 -3,7 -5,5 6 3 11 6 NNW 1027,7 8 0,0
20.02.2018 16:00:00 -3,4 -5,6 5 3 11 6 NNW 1027,6 11 0,0
20.02.2018 15:00:00 -3,2 -6,0 4 2 11 6 N 1027,7 11 0,0
20.02.2018 14:00:00 -3,4 -6,0 6 4 11 6 N 1027,9 13 0,0
20.02.2018 13:00:00 -3,8 -5,9 8 4 12 7 NNW 1028,3 8 0,0
20.02.2018 12:00:00 -3,7 -5,9 6 4 15 8 N 1028,4 8 0,0
20.02.2018 11:00:00 -3,9 -5,7 7 4 15 8 N 1028,3 10 0,1
20.02.2018 10:00:00 -4,1 -5,8 8 5 15 8 N 1028,1 9 0,2
20.02.2018 09:00:00 -4,2 -5,6 7 4 15 8 N 1027,9 9 0,2
20.02.2018 08:00:00 -4,5 -5,7 5 3 11 6 NNO 1027,5 9 0,1
20.02.2018 07:00:00 -4,4 -5,6 5 3 16 9 N 1027,6 9 0,1
20.02.2018 06:00:00 -4,2 -5,3 6 3 16 9 N 1027,4 3,3 0,1
20.02.2018 05:00:00 -3,9 -5,2 7 4 16 8 N 1027,3 8 0,0
20.02.2018 04:00:00 -3,7 -4,8 7 4 16 9 N 1027,2 8 0,1
20.02.2018 03:00:00 -3,3 -4,4 9 5 16 9 N 1027,4 8 0,1
20.02.2018 02:00:00 -3,0 -4,0 9 5 23 13 N 1027,3 2,9 0,2
20.02.2018 01:00:00 -2,6 -3,7 9 5 23 13 NO 1027,0 4,8 0,0
20.02.2018 00:00:00 -2,3 -3,4 11 6 23 12 NO 1026,9 10 0,0
19.02.2018 23:00:00 -2,1 -3,1 12 7 30 16 NO 1026,5 8 0,0
19.02.2018 22:00:00 -1,7 -2,5 14 7 30 16 NNO 1026,0 7 0,1
19.02.2018 21:00:00 -1,0 -1,8 13 7 32 17 NNO 1025,8 6 0,0
19.02.2018 20:00:00 -0,7 -1,4 14 8 36 20 NO 1025,3 2,9 0,1
19.02.2018 19:00:00 -0,4 -1,1 19 10 36 20 ONO 1024,7 2,6 0,2
19.02.2018 18:00:00 0,3 -0,7 13 7 22 12 NO 1024,1 2,1 0,2
19.02.2018 17:00:00 0,6 -0,4 8 4 16 9 ONO 1023,6 7 0,2
19.02.2018 16:00:00 0,7 -0,6 5 3 14 7 O 1023,2 7 0,0
19.02.2018 15:00:00 0,8 -0,7 6 3 14 7 ONO 1022,9 11 0,0
19.02.2018 14:00:00 0,9 -0,7 6 3 12 6 ONO 1022,5 13 0,0
19.02.2018 13:00:00 0,6 -0,7 6 3 11 6 ONO 1022,4 11 0,0
19.02.2018 12:00:00 0,5 -0,5 5 3 11 6 ONO 1022,2 4,9 0,1
19.02.2018 11:00:00 0,4 -0,5 5 3 9 5 NO 1022,0 1,6 0,6
19.02.2018 10:00:00 0,0 -0,7 4 2 7 4 NO 1021,7 1,8 0,6
19.02.2018 09:00:00 -0,2 -0,8 4 2 6 3 NO 1021,3 4,7 0,2
19.02.2018 08:00:00 -0,3 -0,9 0 0 8 4 N 1020,9 6 0,0
19.02.2018 07:00:00 -0,4 -1,0 5 3 8 4 ZO 1020,5 7 0,0
19.02.2018 06:00:00 -0,6 -1,2 3 2 6 4 ZO 1020,4 4,8 0,1

tt = temperatuur
td = dauwpunt
ff = windsnelheid
fx = windstoten
dd = windrichting
ppp = luchtdruk
vv = zicht
rr = neerslag

Weerstations in de omgeving